This demonstration page uses our WeatherBlox Daily Observations layout. Learn more.

Left ArrowRight Arrow

34.74481, -87.66753

Hourly Observations for July 29, 2022

Temp ( °F °C ) Dew Point ( °F °C ) Humidity (%) Winds ( mph kmh ) Pressure ( in mb ) Visibility ( mi km ) Precip ( " mm )
12:24 am 00:24 Mostly Clear with Nearby Thunderstorms 77 25 75 23.9 94 94 Calm 29.99 1016 10 16 0.00 0.00
12:42 am 00:42 Partly Cloudy 78 25.6 74 23.3 87 87 NNE 3 6 30.00 1016 10 16 0.00 0.00
12:53 am 00:53 Mostly Clear 78 25.6 74 23.3 87 87 SE 3 6 29.99 1016 10 16 0.00 0.00
1:53 am 01:53 Mostly Cloudy 78 25.6 75 23.9 90 90 SSE 3 6 29.98 1015 10 16 0.00 0.00
2:53 am 02:53 Mostly Clear 77 25 74 23.3 90 90 Calm 29.97 1015 10 16 0.00 0.00
3:53 am 03:53 Clear 76 24.4 74 23.3 94 94 SSE 3 6 29.97 1015 10 16 0.00 0.00
4:53 am 04:53 Clear 76 24.4 73 22.8 91 91 Calm 29.97 1015 10 16 0.00 0.00
5:53 am 05:53 Clear 76 24.4 73 22.8 91 91 S 5 7 29.98 1015 10 16 0.00 0.00
6:53 am 06:53 Mostly Cloudy 79 26.1 74 23.3 85 85 WSW 3 6 30.01 1016 10 16 0.00 0.00
7:53 am 07:53 Cloudy 81 27.2 74 23.3 79 79 WSW 9 15 30.03 1017 10 16 0.00 0.00
8:53 am 08:53 Cloudy 83 28.3 75 23.9 77 77 W 9 15 30.05 1018 10 16 0.00 0.00
9:53 am 09:53 Cloudy 79 26.1 73 22.8 82 82 N 8 13 30.08 1019 10 16 0.00 0.00
10:19 am 10:19 Mostly Cloudy 80 26.7 72 22.2 76 76 VRB 6 9 30.08 1019 10 16 0.00 0.00
10:53 am 10:53 Partly Cloudy 84 28.9 73 22.8 70 70 WNW 5 7 30.08 1019 10 16 0.00 0.00
11:53 am 11:53 Sunny 89 31.7 72 22.2 57 57 NW 6 9 30.06 1018 10 16 0.00 0.00
12:53 pm 12:53 Sunny 90 32.2 70 21.1 52 52 WNW 6 9 30.04 1017 10 16 0.00 0.00
1:53 pm 13:53 Sunny 91 32.8 69 20.6 49 49 WSW 5 7 30.02 1017 10 16 0.00 0.00
2:53 pm 14:53 Sunny 94 34.4 69 20.6 44 44 Calm 30.00 1016 10 16 0.00 0.00
3:53 pm 15:53 Cloudy 91 32.8 72 22.2 54 54 NW 9 15 29.99 1016 10 16 0.00 0.00
4:20 pm 16:20 Cloudy with Nearby Thunderstorms 91 32.8 70 21.1 50 50 NNW 8 13 29.97 1015 10 16 0.00 0.00
4:46 pm 16:46 Cloudy with Thunderstorms 91 32.8 72 22.2 54 54 NW 10 17 29.98 1015 10 16 0.00 0.00
4:53 pm 16:53 Cloudy with Thunderstorms 89 31.7 72 22.2 57 57 NNW 8 13 30.00 1016 10 16 0.00 0.00
5:01 pm 17:01 Cloudy 90 32.2 72 22.2 56 56 NNW 7 11 29.98 1015 10 16 0.00 0.00
5:28 pm 17:28 Mostly Cloudy with Nearby Thunderstorms 89 31.7 72 22.2 57 57 NNW 7 11 29.99 1015 10 16 0.00 0.00
5:43 pm 17:43 Mostly Cloudy 88 31.1 72 22.2 59 59 VRB 5 7 29.99 1015 10 16 0.00 0.00
5:53 pm 17:53 Mostly Cloudy 89 31.7 71 21.7 55 55 undefined N/A 30.00 1016 10 16 0.00 0.00
6:53 pm 18:53 Cloudy 84 28.9 75 23.9 74 74 SSW 8 13 30.02 1017 10 16 0.00 0.00
7:53 pm 19:53 Sunny 82 27.8 75 23.9 79 79 Calm 30.02 1017 10 16 0.00 0.00
8:53 pm 20:53 Clear 81 27.2 74 23.3 79 79 Calm 30.04 1017 10 16 0.00 0.00
9:53 pm 21:53 Partly Cloudy 81 27.2 74 23.3 79 79 SSW 5 7 30.06 1018 10 16 0.00 0.00
10:53 pm 22:53 Clear 79 26.1 75 23.9 88 88 Calm 30.07 1018 10 16 0.00 0.00
11:53 pm 23:53 Partly Cloudy 78 25.6 75 23.9 90 90 Calm 30.08 1019 10 16 0.00 0.00

Powered by AerisWeather